Time,TemperatureF,DewpointF,PressureIn,WindDirection,WindDirectionDegrees,WindSpeedMPH,WindSpeedGustMPH,Humidity,HourlyPrecipIn,Conditions,Clouds,dailyrainin,SoftwareType,DateUTC
2013-08-03 00:00:00,73.4,43.3,29.78,NE,54,0.0,5.0,34,0.00,,---,0.00,VWS V14.01,2013-08-03 08:00:00,
2013-08-03 00:05:00,73.5,43.4,29.78,ENE,67,0.0,3.0,34,0.00,,---,0.00,VWS V14.01,2013-08-03 08:05:00,
2013-08-03 00:10:00,73.5,43.4,29.77,NE,51,1.0,3.0,34,0.00,,---,0.00,VWS V14.01,2013-08-03 08:10:00,
2013-08-03 00:15:00,73.5,43.4,29.78,NE,55,0.0,4.0,34,0.00,,---,0.00,VWS V14.01,2013-08-03 08:15:00,
2013-08-03 00:20:00,73.4,44.1,29.77,NNE,26,3.0,4.0,35,0.00,,---,0.00,VWS V14.01,2013-08-03 08:20:00,
2013-08-03 00:25:00,73.3,44.0,29.77,NNE,32,2.0,4.0,35,0.00,,---,0.00,VWS V14.01,2013-08-03 08:25:00,
2013-08-03 00:30:00,73.3,43.3,29.77,NE,55,0.0,6.0,34,0.00,,---,0.00,VWS V14.01,2013-08-03 08:30:00,
2013-08-03 00:35:00,73.2,43.9,29.77,NNE,15,0.0,4.0,35,0.00,,---,0.00,VWS V14.01,2013-08-03 08:35:00,
2013-08-03 00:40:00,73.1,43.8,29.77,NE,40,0.0,4.0,35,0.00,,---,0.00,VWS V14.01,2013-08-03 08:40:00,
2013-08-03 00:45:00,73.0,43.8,29.77,NE,56,1.0,4.0,35,0.00,,---,0.00,VWS V14.01,2013-08-03 08:45:00,
2013-08-03 00:50:00,72.7,43.5,29.77,NNE,16,0.0,4.0,35,0.00,,---,0.00,VWS V14.01,2013-08-03 08:50:00,
2013-08-03 00:55:00,72.5,43.3,29.77,NE,49,1.0,5.0,35,0.00,,---,0.00,VWS V14.01,2013-08-03 08:55:00,
2013-08-03 01:00:00,72.3,43.9,29.77,NE,44,1.0,5.0,36,0.00,,---,0.00,VWS V14.01,2013-08-03 09:00:00,
2013-08-03 01:05:00,72.2,44.5,29.77,East,80,0.0,5.0,37,0.00,,---,0.00,VWS V14.01,2013-08-03 09:05:00,
2013-08-03 01:10:00,72.1,44.4,29.77,ENE,69,0.0,5.0,37,0.00,,---,0.00,VWS V14.01,2013-08-03 09:10:00,
2013-08-03 01:15:00,71.8,44.2,29.76,ENE,72,0.0,7.0,37,0.00,,---,0.00,VWS V14.01,2013-08-03 09:15:00,
2013-08-03 01:20:00,71.9,44.2,29.76,NE,52,4.0,7.0,37,0.00,,---,0.00,VWS V14.01,2013-08-03 09:20:00,
2013-08-03 01:25:00,71.8,44.2,29.76,East,84,1.0,7.0,37,0.00,,---,0.00,VWS V14.01,2013-08-03 09:25:00,
2013-08-03 01:30:00,71.6,44.0,29.76,NE,38,0.0,7.0,37,0.00,,---,0.00,VWS V14.01,2013-08-03 09:30:00,
2013-08-03 01:35:00,71.3,43.7,29.76,ENE,57,2.0,5.0,37,0.00,,---,0.00,VWS V14.01,2013-08-03 09:35:00,
2013-08-03 01:40:00,71.1,44.2,29.76,NE,39,0.0,5.0,38,0.00,,---,0.00,VWS V14.01,2013-08-03 09:40:00,
2013-08-03 01:45:00,70.9,43.4,29.76,ENE,64,1.0,5.0,37,0.00,,---,0.00,VWS V14.01,2013-08-03 09:45:00,
2013-08-03 01:50:00,71.0,42.7,29.76,ESE,113,2.0,6.0,36,0.00,,---,0.00,VWS V14.01,2013-08-03 09:50:00,
2013-08-03 01:55:00,71.0,42.7,29.75,East,86,0.0,6.0,36,0.00,,---,0.00,VWS V14.01,2013-08-03 09:55:00,
2013-08-03 02:00:00,70.8,41.8,29.75,SSE,155,0.0,6.0,35,0.00,,---,0.00,VWS V14.01,2013-08-03 10:00:00,
2013-08-03 02:05:00,70.5,41.6,29.75,NE,52,1.0,4.0,35,0.00,,---,0.00,VWS V14.01,2013-08-03 10:05:00,
2013-08-03 02:10:00,70.3,40.6,29.75,NW,304,0.0,6.0,34,0.00,,---,0.00,VWS V14.01,2013-08-03 10:10:00,
2013-08-03 02:15:00,70.0,41.1,29.75,ESE,115,0.0,6.0,35,0.00,,---,0.00,VWS V14.01,2013-08-03 10:15:00,
2013-08-03 02:20:00,69.7,40.8,29.75,ESE,103,2.0,6.0,35,0.00,,---,0.00,VWS V14.01,2013-08-03 10:20:00,
2013-08-03 02:25:00,69.5,40.7,29.75,SE,140,0.0,6.0,35,0.00,,---,0.00,VWS V14.01,2013-08-03 10:25:00,
2013-08-03 02:30:00,69.1,40.3,29.75,ENE,75,3.0,6.0,35,0.00,,---,0.00,VWS V14.01,2013-08-03 10:30:00,
2013-08-03 02:35:00,68.9,40.2,29.75,SE,144,1.0,1.0,35,0.00,,---,0.00,VWS V14.01,2013-08-03 10:35:00,
2013-08-03 02:40:00,68.8,39.3,29.75,ESE,105,0.0,2.0,34,0.00,,---,0.00,VWS V14.01,2013-08-03 10:40:00,
2013-08-03 02:45:00,68.5,39.0,29.75,ENE,63,0.0,2.0,34,0.00,,---,0.00,VWS V14.01,2013-08-03 10:45:00,
2013-08-03 02:50:00,68.3,38.9,29.74,SE,144,0.0,2.0,34,0.00,,---,0.00,VWS V14.01,2013-08-03 10:50:00,
2013-08-03 02:55:00,68.1,37.9,29.74,ESE,123,0.0,2.0,33,0.00,,---,0.00,VWS V14.01,2013-08-03 10:55:00,
2013-08-03 03:00:00,67.9,37.8,29.75,ESE,102,0.0,2.0,33,0.00,,---,0.00,VWS V14.01,2013-08-03 11:00:00,
2013-08-03 03:05:00,67.8,37.7,29.75,SSE,161,0.0,4.0,33,0.00,,---,0.00,VWS V14.01,2013-08-03 11:05:00,
2013-08-03 03:10:00,67.7,37.6,29.74,SSE,152,0.0,4.0,33,0.00,,---,0.00,VWS V14.01,2013-08-03 11:10:00,
2013-08-03 03:15:00,67.6,36.7,29.74,ESE,113,1.0,4.0,32,0.00,,---,0.00,VWS V14.01,2013-08-03 11:15:00,
2013-08-03 03:20:00,67.5,36.6,29.74,SSE,156,0.0,4.0,32,0.00,,---,0.00,VWS V14.01,2013-08-03 11:20:00,
2013-08-03 03:25:00,67.4,36.5,29.74,NNE,24,0.0,4.0,32,0.00,,---,0.00,VWS V14.01,2013-08-03 11:25:00,
2013-08-03 03:30:00,67.4,36.5,29.74,South,189,1.0,4.0,32,0.00,,---,0.00,VWS V14.01,2013-08-03 11:30:00,
2013-08-03 03:35:00,67.4,35.7,29.75,SE,144,0.0,2.0,31,0.00,,---,0.00,VWS V14.01,2013-08-03 11:35:00,
2013-08-03 03:40:00,67.2,36.4,29.75,WSW,247,0.0,3.0,32,0.00,,---,0.00,VWS V14.01,2013-08-03 11:40:00,
2013-08-03 03:45:00,67.0,36.2,29.74,South,176,0.0,4.0,32,0.00,,---,0.00,VWS V14.01,2013-08-03 11:45:00,
2013-08-03 03:50:00,66.9,36.1,29.74,SE,146,0.0,4.0,32,0.00,,---,0.00,VWS V14.01,2013-08-03 11:50:00,
2013-08-03 03:54:00,66.7,35.9,29.74,North,355,3.0,4.0,32,0.00,,---,0.00,VWS V14.01,2013-08-03 11:54:00,
2013-08-03 04:00:00,66.6,35.8,29.74,SSE,150,0.0,6.0,32,0.00,,---,0.00,VWS V14.01,2013-08-03 12:00:00,
2013-08-03 04:05:00,66.4,34.9,29.74,South,173,1.0,2.0,31,0.00,,---,0.00,VWS V14.01,2013-08-03 12:05:00,
2013-08-03 04:10:00,66.3,34.8,29.75,South,175,0.0,4.0,31,0.00,,---,0.00,VWS V14.01,2013-08-03 12:10:00,
2013-08-03 04:14:00,66.2,34.7,29.74,SSE,164,0.0,4.0,31,0.00,,---,0.00,VWS V14.01,2013-08-03 12:14:00,
2013-08-03 04:20:00,66.0,34.5,29.75,SSE,158,0.0,4.0,31,0.00,,---,0.00,VWS V14.01,2013-08-03 12:20:00,
2013-08-03 04:25:00,66.0,35.3,29.75,South,171,0.0,4.0,32,0.00,,---,0.00,VWS V14.01,2013-08-03 12:25:00,
2013-08-03 04:30:00,65.9,34.4,29.74,South,169,0.0,4.0,31,0.00,,---,0.00,VWS V14.01,2013-08-03 12:30:00,
2013-08-03 04:35:00,65.9,34.4,29.74,SE,139,0.0,1.0,31,0.00,,---,0.00,VWS V14.01,2013-08-03 12:35:00,
2013-08-03 04:39:00,65.8,34.3,29.74,ENE,71,0.0,2.0,31,0.00,,---,0.00,VWS V14.01,2013-08-03 12:39:00,
2013-08-03 04:45:00,65.7,34.3,29.74,East,92,0.0,2.0,31,0.00,,---,0.00,VWS V14.01,2013-08-03 12:45:00,
2013-08-03 04:50:00,65.6,34.2,29.74,ESE,105,0.0,2.0,31,0.00,,---,0.00,VWS V14.01,2013-08-03 12:50:00,
2013-08-03 04:55:00,65.6,34.2,29.74,ESE,123,0.0,2.0,31,0.00,,---,0.00,VWS V14.01,2013-08-03 12:55:00,
2013-08-03 04:59:00,65.5,34.9,29.74,NNW,335,0.0,2.0,32,0.00,,---,0.00,VWS V14.01,2013-08-03 12:59:00,
2013-08-03 05:00:00,65.4,34.8,29.74,SW,217,0.0,2.0,32,0.00,,---,0.00,VWS V14.01,2013-08-03 13:00:00,
2013-08-03 05:04:00,65.4,34.8,29.74,SSW,201,0.0,1.0,32,0.00,,---,0.00,VWS V14.01,2013-08-03 13:04:00,
2013-08-03 05:09:00,65.4,34.8,29.74,SE,125,0.0,2.0,32,0.00,,---,0.00,VWS V14.01,2013-08-03 13:09:00,
2013-08-03 05:14:00,65.3,34.7,29.73,SE,139,0.0,4.0,32,0.00,,---,0.00,VWS V14.01,2013-08-03 13:14:00,
2013-08-03 05:19:00,65.2,34.6,29.73,SE,140,0.0,4.0,32,0.00,,---,0.00,VWS V14.01,2013-08-03 13:19:00,
2013-08-03 05:24:00,65.2,34.6,29.73,NE,34,0.0,4.0,32,0.00,,---,0.00,VWS V14.01,2013-08-03 13:24:00,
2013-08-03 05:29:00,65.1,34.5,29.73,NE,48,0.0,4.0,32,0.00,,---,0.00,VWS V14.01,2013-08-03 13:29:00,
2013-08-03 05:30:00,65.1,35.3,29.73,East,88,0.0,4.0,33,0.00,,---,0.00,VWS V14.01,2013-08-03 13:30:00,
2013-08-03 05:34:00,65.0,35.2,29.73,East,84,0.0,1.0,33,0.00,,---,0.00,VWS V14.01,2013-08-03 13:34:00,
2013-08-03 05:39:00,65.0,35.2,29.73,North,360,2.0,2.0,33,0.00,,---,0.00,VWS V14.01,2013-08-03 13:39:00,
2013-08-03 05:44:00,65.0,35.2,29.73,East,85,0.0,2.0,33,0.00,,---,0.00,VWS V14.01,2013-08-03 13:44:00,
2013-08-03 05:49:00,65.0,35.2,29.73,NNE,21,0.0,2.0,33,0.00,,---,0.00,VWS V14.01,2013-08-03 13:49:00,
2013-08-03 05:54:00,64.9,35.9,29.73,WNW,292,0.0,2.0,34,0.00,,---,0.00,VWS V14.01,2013-08-03 13:54:00,
2013-08-03 05:59:00,65.0,36.0,29.73,NNW,330,0.0,2.0,34,0.00,,---,0.00,VWS V14.01,2013-08-03 13:59:00,
2013-08-03 06:00:00,65.0,36.0,29.73,South,191,0.0,2.0,34,0.00,,---,0.00,VWS V14.01,2013-08-03 14:00:00,
2013-08-03 06:04:00,65.1,36.1,29.73,SSW,203,0.0,1.0,34,0.00,,---,0.00,VWS V14.01,2013-08-03 14:04:00,
2013-08-03 06:09:00,65.1,36.8,29.73,SSW,203,0.0,1.0,35,0.00,,---,0.00,VWS V14.01,2013-08-03 14:09:00,
2013-08-03 06:14:00,65.2,36.9,29.72,SSW,204,0.0,1.0,35,0.00,,---,0.00,VWS V14.01,2013-08-03 14:14:00,
2013-08-03 06:19:00,65.2,37.6,29.72,SSW,204,1.0,1.0,36,0.00,,---,0.00,VWS V14.01,2013-08-03 14:19:00,
2013-08-03 06:24:00,65.4,37.1,29.72,South,171,0.0,4.0,35,0.00,,---,0.00,VWS V14.01,2013-08-03 14:24:00,
2013-08-03 06:29:00,65.5,37.2,29.72,South,184,0.0,4.0,35,0.00,,---,0.00,VWS V14.01,2013-08-03 14:29:00,
2013-08-03 06:30:00,65.5,37.9,29.72,South,184,0.0,4.0,36,0.00,,---,0.00,VWS V14.01,2013-08-03 14:30:00,
2013-08-03 06:34:00,65.4,37.1,29.72,East,88,0.0,2.0,35,0.00,,---,0.00,VWS V14.01,2013-08-03 14:34:00,
2013-08-03 06:39:00,65.4,37.8,29.72,East,88,0.0,2.0,36,0.00,,---,0.00,VWS V14.01,2013-08-03 14:39:00,
2013-08-03 06:44:00,65.3,37.0,29.72,SSE,155,0.0,4.0,35,0.00,,---,0.00,VWS V14.01,2013-08-03 14:44:00,
2013-08-03 06:49:00,65.4,37.8,29.72,SSE,153,0.0,4.0,36,0.00,,---,0.00,VWS V14.01,2013-08-03 14:49:00,
2013-08-03 06:54:00,65.3,37.7,29.72,South,182,0.0,4.0,36,0.00,,---,0.00,VWS V14.01,2013-08-03 14:54:00,
2013-08-03 06:59:00,65.2,37.6,29.71,SSE,156,1.0,4.0,36,0.00,,---,0.00,VWS V14.01,2013-08-03 14:59:00,
2013-08-03 07:00:00,65.2,37.6,29.71,NNE,22,0.0,4.0,36,0.00,,---,0.00,VWS V14.01,2013-08-03 15:00:00,
2013-08-03 07:04:00,65.3,38.4,29.71,NE,39,0.0,1.0,37,0.00,,---,0.00,VWS V14.01,2013-08-03 15:04:00,
2013-08-03 07:09:00,65.2,38.3,29.72,ESE,121,0.0,1.0,37,0.00,,---,0.00,VWS V14.01,2013-08-03 15:09:00,
2013-08-03 07:14:00,65.2,38.3,29.71,East,85,0.0,1.0,37,0.00,,---,0.00,VWS V14.01,2013-08-03 15:14:00,
2013-08-03 07:19:00,65.3,39.1,29.71,SE,124,0.0,2.0,38,0.00,,---,0.00,VWS V14.01,2013-08-03 15:19:00,
2013-08-03 07:24:00,65.2,39.0,29.71,NNW,331,0.0,2.0,38,0.00,,---,0.00,VWS V14.01,2013-08-03 15:24:00,
2013-08-03 07:29:00,65.3,39.1,29.71,NNW,332,0.0,2.0,38,0.00,,---,0.00,VWS V14.01,2013-08-03 15:29:00,
2013-08-03 07:30:00,65.3,39.1,29.71,NE,36,0.0,2.0,38,0.00,,---,0.00,VWS V14.01,2013-08-03 15:30:00,
2013-08-03 07:34:00,65.3,39.1,29.71,NE,36,0.0,0.0,38,0.00,,---,0.00,VWS V14.01,2013-08-03 15:34:00,
2013-08-03 07:39:00,65.2,39.6,29.71,East,101,0.0,1.0,39,0.00,,---,0.00,VWS V14.01,2013-08-03 15:39:00,
2013-08-03 07:44:00,65.0,39.5,29.71,ESE,102,0.0,1.0,39,0.00,,---,0.00,VWS V14.01,2013-08-03 15:44:00,
2013-08-03 07:49:00,64.9,39.4,29.71,ESE,102,0.0,1.0,39,0.00,,---,0.00,VWS V14.01,2013-08-03 15:49:00,
2013-08-03 07:54:00,64.9,40.0,29.70,ESE,102,0.0,1.0,40,0.00,,---,0.00,VWS V14.01,2013-08-03 15:54:00,
2013-08-03 07:59:00,64.8,39.9,29.70,ESE,103,0.0,1.0,40,0.00,,---,0.00,VWS V14.01,2013-08-03 15:59:00,
2013-08-03 08:00:00,64.8,40.6,29.70,SE,128,0.0,1.0,41,0.00,,---,0.00,VWS V14.01,2013-08-03 16:00:00,
2013-08-03 08:04:00,64.8,39.9,29.70,SE,128,0.0,1.0,40,0.00,,---,0.00,VWS V14.01,2013-08-03 16:04:00,
2013-08-03 08:09:00,64.9,40.0,29.71,SE,129,0.0,2.0,40,0.00,,---,0.00,VWS V14.01,2013-08-03 16:09:00,
2013-08-03 08:14:00,65.0,40.8,29.71,NNW,329,0.0,2.0,41,0.00,,---,0.00,VWS V14.01,2013-08-03 16:14:00,
2013-08-03 08:19:00,65.0,40.8,29.71,NNW,329,0.0,2.0,41,0.00,,---,0.00,VWS V14.01,2013-08-03 16:19:00,
2013-08-03 08:24:00,64.9,41.3,29.71,NNW,329,0.0,2.0,42,0.00,,---,0.00,VWS V14.01,2013-08-03 16:24:00,
2013-08-03 08:29:00,64.9,40.7,29.71,ENE,59,0.0,2.0,41,0.00,,---,0.00,VWS V14.01,2013-08-03 16:29:00,
2013-08-03 08:30:00,64.9,41.3,29.71,ENE,59,0.0,2.0,42,0.00,,---,0.00,VWS V14.01,2013-08-03 16:30:00,
2013-08-03 08:34:00,64.9,40.7,29.71,ENE,59,0.0,1.0,41,0.00,,---,0.00,VWS V14.01,2013-08-03 16:34:00,
2013-08-03 08:39:00,64.9,41.3,29.71,SSE,161,0.0,1.0,42,0.00,,---,0.00,VWS V14.01,2013-08-03 16:39:00,
2013-08-03 08:44:00,64.9,41.3,29.71,SSE,166,0.0,2.0,42,0.00,,---,0.00,VWS V14.01,2013-08-03 16:44:00,
2013-08-03 08:49:00,64.9,41.3,29.71,SSE,167,0.0,2.0,42,0.00,,---,0.00,VWS V14.01,2013-08-03 16:49:00,
2013-08-03 08:54:00,64.9,41.3,29.72,SSE,167,1.0,2.0,42,0.00,,---,0.00,VWS V14.01,2013-08-03 16:54:00,
2013-08-03 08:59:00,64.9,41.3,29.72,SSE,167,0.0,2.0,42,0.00,,---,0.00,VWS V14.01,2013-08-03 16:59:00,
2013-08-03 09:00:00,64.9,40.7,29.72,SSE,167,0.0,2.0,41,0.00,,---,0.00,VWS V14.01,2013-08-03 17:00:00,
2013-08-03 09:04:00,65.0,41.4,29.72,SSE,167,0.0,1.0,42,0.00,,---,0.00,VWS V14.01,2013-08-03 17:04:00,
2013-08-03 09:09:00,65.0,41.4,29.72,South,171,0.0,2.0,42,0.00,,---,0.00,VWS V14.01,2013-08-03 17:09:00,
2013-08-03 09:14:00,65.2,41.5,29.72,South,171,0.0,2.0,42,0.00,,---,0.00,VWS V14.01,2013-08-03 17:14:00,
2013-08-03 09:19:00,65.3,41.6,29.72,South,171,0.0,2.0,42,0.00,,---,0.00,VWS V14.01,2013-08-03 17:19:00,
2013-08-03 09:24:00,65.5,41.8,29.72,South,171,1.0,2.0,42,0.00,,---,0.00,VWS V14.01,2013-08-03 17:24:00,
2013-08-03 09:29:00,65.6,42.5,29.73,South,171,0.0,2.0,43,0.00,,---,0.00,VWS V14.01,2013-08-03 17:29:00,
2013-08-03 09:30:00,65.6,41.3,29.73,South,171,0.0,2.0,41,0.00,,---,0.00,VWS V14.01,2013-08-03 17:30:00,
2013-08-03 09:34:00,65.6,41.3,29.73,South,171,0.0,2.0,41,0.00,,---,0.00,VWS V14.01,2013-08-03 17:34:00,
2013-08-03 09:39:00,65.7,41.4,29.73,South,173,1.0,4.0,41,0.00,,---,0.00,VWS V14.01,2013-08-03 17:39:00,
2013-08-03 09:44:00,65.6,41.3,29.74,SSW,194,0.0,4.0,41,0.00,,---,0.00,VWS V14.01,2013-08-03 17:44:00,
2013-08-03 09:49:00,65.6,41.3,29.74,South,172,0.0,4.0,41,0.00,,---,0.00,VWS V14.01,2013-08-03 17:49:00,
2013-08-03 09:54:00,65.5,41.2,29.74,South,172,0.0,4.0,41,0.00,,---,0.00,VWS V14.01,2013-08-03 17:54:00,
2013-08-03 09:59:00,65.4,42.3,29.74,South,172,0.0,4.0,43,0.00,,---,0.00,VWS V14.01,2013-08-03 17:59:00,
2013-08-03 10:00:00,65.4,41.1,29.74,South,172,0.0,4.0,41,0.00,,---,0.00,VWS V14.01,2013-08-03 18:00:00,
2013-08-03 10:04:00,65.3,41.6,29.74,South,172,0.0,1.0,42,0.00,,---,0.00,VWS V14.01,2013-08-03 18:04:00,
2013-08-03 10:09:00,65.4,41.1,29.73,South,172,0.0,1.0,41,0.00,,---,0.00,VWS V14.01,2013-08-03 18:09:00,
2013-08-03 10:14:00,65.4,42.3,29.73,SE,140,0.0,1.0,43,0.00,,---,0.00,VWS V14.01,2013-08-03 18:14:00,
2013-08-03 10:19:00,65.4,41.1,29.73,SE,140,1.0,1.0,41,0.00,,---,0.00,VWS V14.01,2013-08-03 18:19:00,
2013-08-03 10:24:00,65.4,41.7,29.73,SE,140,0.0,1.0,42,0.00,,---,0.00,VWS V14.01,2013-08-03 18:24:00,
2013-08-03 10:29:00,65.5,40.6,29.73,SSE,167,0.0,4.0,40,0.00,,---,0.00,VWS V14.01,2013-08-03 18:29:00,
2013-08-03 10:30:00,65.6,41.9,29.73,SSE,167,0.0,4.0,42,0.00,,---,0.00,VWS V14.01,2013-08-03 18:30:00,
2013-08-03 10:34:00,65.7,40.1,29.73,SSE,167,0.0,0.0,39,0.00,,---,0.00,VWS V14.01,2013-08-03 18:34:00,
2013-08-03 10:39:00,65.9,40.9,29.73,SE,140,0.0,1.0,40,0.00,,---,0.00,VWS V14.01,2013-08-03 18:39:00,
2013-08-03 10:44:00,66.1,39.8,29.74,SE,140,0.0,1.0,38,0.00,,---,0.00,VWS V14.01,2013-08-03 18:44:00,
2013-08-03 10:49:00,66.2,40.5,29.74,SE,140,0.0,1.0,39,0.00,,---,0.00,VWS V14.01,2013-08-03 18:49:00,
2013-08-03 10:54:00,66.3,41.3,29.74,SE,140,0.0,1.0,40,0.00,,---,0.00,VWS V14.01,2013-08-03 18:54:00,
2013-08-03 10:59:00,66.4,43.2,29.74,SE,140,0.0,1.0,43,0.00,,---,0.00,VWS V14.01,2013-08-03 18:59:00,
2013-08-03 11:00:00,66.4,43.2,29.74,SE,140,0.0,1.0,43,0.00,,---,0.00,VWS V14.01,2013-08-03 19:00:00,
2013-08-03 11:04:00,66.3,41.9,29.74,SE,141,1.0,2.0,41,0.00,,---,0.00,VWS V14.01,2013-08-03 19:04:00,
2013-08-03 11:08:00,66.3,41.9,29.74,SE,146,0.0,2.0,41,0.00,,---,0.00,VWS V14.01,2013-08-03 19:08:00,
2013-08-03 11:14:00,66.2,41.2,29.74,SE,146,0.0,2.0,40,0.00,,---,0.00,VWS V14.01,2013-08-03 19:14:00,
2013-08-03 11:18:00,66.2,41.2,29.74,SE,146,0.0,2.0,40,0.00,,---,0.00,VWS V14.01,2013-08-03 19:18:00,
2013-08-03 11:24:00,66.2,41.2,29.74,SE,146,0.0,2.0,40,0.00,,---,0.00,VWS V14.01,2013-08-03 19:24:00,
2013-08-03 11:29:00,66.2,40.5,29.74,SE,146,0.0,2.0,39,0.00,,---,0.00,VWS V14.01,2013-08-03 19:29:00,
2013-08-03 11:30:00,66.3,40.6,29.75,SE,146,0.0,2.0,39,0.00,,---,0.00,VWS V14.01,2013-08-03 19:30:00,
2013-08-03 11:33:00,66.3,40.0,29.75,SSE,160,0.0,4.0,38,0.00,,---,0.00,VWS V14.01,2013-08-03 19:33:00,
2013-08-03 11:39:00,66.6,41.5,29.74,SSE,160,0.0,4.0,40,0.00,,---,0.00,VWS V14.01,2013-08-03 19:39:00,
2013-08-03 11:43:00,66.8,41.1,29.73,SE,142,0.0,4.0,39,0.00,,---,0.00,VWS V14.01,2013-08-03 19:43:00,
2013-08-03 11:49:00,67.2,41.4,29.73,ESE,118,0.0,4.0,39,0.00,,---,0.00,VWS V14.01,2013-08-03 19:49:00,
2013-08-03 11:54:00,67.6,41.1,29.73,NE,49,3.0,5.0,38,0.00,,---,0.00,VWS V14.01,2013-08-03 19:54:00,
2013-08-03 11:59:00,68.4,41.8,29.73,South,175,2.0,5.0,38,0.00,,---,0.00,VWS V14.01,2013-08-03 19:59:00,
2013-08-03 12:00:00,68.9,41.6,29.73,South,171,0.0,5.0,37,0.00,,---,0.00,VWS V14.01,2013-08-03 20:00:00,
2013-08-03 12:04:00,69.2,41.8,29.73,South,171,0.0,4.0,37,0.00,,---,0.00,VWS V14.01,2013-08-03 20:04:00,
2013-08-03 12:09:00,69.7,42.3,29.73,SE,144,6.0,7.0,37,0.00,,---,0.00,VWS V14.01,2013-08-03 20:09:00,
2013-08-03 12:13:00,70.3,42.8,29.74,SSW,202,1.0,7.0,37,0.00,,---,0.00,VWS V14.01,2013-08-03 20:13:00,
2013-08-03 12:19:00,70.8,41.8,29.74,South,183,0.0,9.0,35,0.00,,---,0.00,VWS V14.01,2013-08-03 20:19:00,
2013-08-03 12:24:00,71.1,42.8,29.74,South,183,3.0,9.0,36,0.00,,---,0.00,VWS V14.01,2013-08-03 20:24:00,
2013-08-03 12:29:00,71.3,43.0,29.74,SE,143,4.0,9.0,36,0.00,,---,0.00,VWS V14.01,2013-08-03 20:29:00,
2013-08-03 12:30:00,71.5,42.4,29.74,SSE,157,2.0,9.0,35,0.00,,---,0.00,VWS V14.01,2013-08-03 20:30:00,
2013-08-03 12:33:00,71.6,42.5,29.74,SSE,147,1.0,6.0,35,0.00,,---,0.00,VWS V14.01,2013-08-03 20:33:00,
2013-08-03 12:34:00,71.5,42.4,29.74,SSE,157,2.0,6.0,35,0.00,,---,0.00,VWS V14.01,2013-08-03 20:34:00,
2013-08-03 12:39:00,71.8,42.7,29.75,SSE,168,5.0,6.0,35,0.00,,---,0.00,VWS V14.01,2013-08-03 20:39:00,
2013-08-03 12:43:00,72.2,43.8,29.74,SSE,151,1.0,6.0,36,0.00,,---,0.00,VWS V14.01,2013-08-03 20:43:00,
2013-08-03 12:44:00,72.3,43.9,29.74,SSE,151,0.0,6.0,36,0.00,,---,0.00,VWS V14.01,2013-08-03 20:44:00,
2013-08-03 12:49:00,72.6,42.7,29.73,South,170,2.0,8.0,34,0.00,,---,0.00,VWS V14.01,2013-08-03 20:49:00,
2013-08-03 12:54:00,72.6,42.7,29.73,SE,144,2.0,8.0,34,0.00,,---,0.00,VWS V14.01,2013-08-03 20:54:00,
2013-08-03 12:58:00,72.8,42.8,29.74,SSE,159,2.0,9.0,34,0.00,,---,0.00,VWS V14.01,2013-08-03 20:58:00,
2013-08-03 13:00:00,72.9,42.1,29.74,SSE,149,4.0,9.0,33,0.00,,---,0.00,VWS V14.01,2013-08-03 21:00:00,
2013-08-03 13:04:00,73.2,43.2,29.74,SE,146,4.0,6.0,34,0.00,,---,0.00,VWS V14.01,2013-08-03 21:04:00,
2013-08-03 13:09:00,73.7,44.4,29.74,SSW,192,5.0,6.0,35,0.00,,---,0.00,VWS V14.01,2013-08-03 21:09:00,
2013-08-03 13:14:00,73.9,43.0,29.73,SE,138,2.0,8.0,33,0.00,,---,0.00,VWS V14.01,2013-08-03 21:14:00,
2013-08-03 13:19:00,73.8,44.5,29.74,SSE,164,4.0,8.0,35,0.00,,---,0.00,VWS V14.01,2013-08-03 21:19:00,
2013-08-03 13:24:00,73.7,43.6,29.74,SSE,167,5.0,8.0,34,0.00,,---,0.00,VWS V14.01,2013-08-03 21:24:00,
2013-08-03 13:29:00,73.9,43.8,29.74,ESE,119,4.0,8.0,34,0.00,,---,0.00,VWS V14.01,2013-08-03 21:29:00,
2013-08-03 13:30:00,73.9,43.8,29.74,SW,225,5.0,8.0,34,0.00,,---,0.00,VWS V14.01,2013-08-03 21:30:00,
2013-08-03 13:34:00,73.8,43.7,29.75,ESE,121,2.0,6.0,34,0.00,,---,0.00,VWS V14.01,2013-08-03 21:34:00,
2013-08-03 13:39:00,74.1,44.7,29.74,South,175,0.0,6.0,35,0.00,,---,0.00,VWS V14.01,2013-08-03 21:39:00,
2013-08-03 13:43:00,74.4,44.2,29.74,SSE,148,2.0,9.0,34,0.00,,---,0.00,VWS V14.01,2013-08-03 21:43:00,
2013-08-03 13:48:00,74.5,45.1,29.74,SE,134,2.0,9.0,35,0.00,,---,0.00,VWS V14.01,2013-08-03 21:48:00,
2013-08-03 13:54:00,74.6,45.2,29.73,SSE,167,2.0,9.0,35,0.00,,---,0.00,VWS V14.01,2013-08-03 21:54:00,
2013-08-03 13:59:00,74.7,45.3,29.73,SE,138,1.0,9.0,35,0.00,,---,0.00,VWS V14.01,2013-08-03 21:59:00,
2013-08-03 14:00:00,74.9,44.7,29.73,South,178,7.0,9.0,34,0.00,,---,0.00,VWS V14.01,2013-08-03 22:00:00,
2013-08-03 14:03:00,74.7,43.7,29.73,SSE,159,4.0,8.0,33,0.00,,---,0.00,VWS V14.01,2013-08-03 22:03:00,
2013-08-03 14:09:00,74.5,44.3,29.73,SSE,154,4.0,10.0,34,0.00,,---,0.00,VWS V14.01,2013-08-03 22:09:00,
2013-08-03 14:13:00,74.9,43.1,29.73,SSE,168,4.0,10.0,32,0.00,,---,0.00,VWS V14.01,2013-08-03 22:13:00,
2013-08-03 14:18:00,75.1,41.6,29.73,SSE,148,2.0,11.0,30,0.00,,---,0.00,VWS V14.01,2013-08-03 22:18:00,
2013-08-03 14:23:00,74.9,43.1,29.74,South,171,5.0,13.0,32,0.00,,---,0.00,VWS V14.01,2013-08-03 22:23:00,
2013-08-03 14:28:00,75.1,43.3,29.74,SSE,153,1.0,13.0,32,0.00,,---,0.00,VWS V14.01,2013-08-03 22:28:00,
2013-08-03 14:30:00,75.1,42.4,29.74,South,189,1.0,13.0,31,0.00,,---,0.00,VWS V14.01,2013-08-03 22:30:00,
2013-08-03 14:33:00,75.2,44.2,29.74,South,169,2.0,5.0,33,0.00,,---,0.00,VWS V14.01,2013-08-03 22:33:00,
2013-08-03 14:38:00,75.5,43.6,29.74,ESE,115,5.0,9.0,32,0.00,,---,0.00,VWS V14.01,2013-08-03 22:38:00,
2013-08-03 14:43:00,75.5,42.8,29.73,SSE,161,8.0,9.0,31,0.00,,---,0.00,VWS V14.01,2013-08-03 22:43:00,
2013-08-03 14:48:00,75.9,43.1,29.73,SW,227,4.0,10.0,31,0.00,,---,0.00,VWS V14.01,2013-08-03 22:48:00,
2013-08-03 14:53:00,76.1,43.3,29.73,SSE,165,5.0,10.0,31,0.00,,---,0.00,VWS V14.01,2013-08-03 22:53:00,
2013-08-03 14:58:00,76.3,43.5,29.73,SSE,161,5.0,10.0,31,0.00,,---,0.00,VWS V14.01,2013-08-03 22:58:00,
2013-08-03 15:00:00,76.5,41.9,29.73,South,180,0.0,10.0,29,0.00,,---,0.00,VWS V14.01,2013-08-03 23:00:00,
2013-08-03 15:03:00,76.6,42.0,29.73,SSW,211,3.0,3.0,29,0.00,,---,0.00,VWS V14.01,2013-08-03 23:03:00,
2013-08-03 15:08:00,76.9,44.0,29.73,SSE,165,4.0,4.0,31,0.00,,---,0.00,VWS V14.01,2013-08-03 23:08:00,
2013-08-03 15:13:00,77.1,43.3,29.73,SSE,167,2.0,4.0,30,0.00,,---,0.00,VWS V14.01,2013-08-03 23:13:00,
2013-08-03 15:18:00,77.3,43.5,29.72,SSE,153,0.0,5.0,30,0.00,,---,0.00,VWS V14.01,2013-08-03 23:18:00,
2013-08-03 15:23:00,77.6,42.9,29.72,South,175,4.0,6.0,29,0.00,,---,0.00,VWS V14.01,2013-08-03 23:23:00,
2013-08-03 15:28:00,77.8,43.9,29.72,ESE,117,2.0,6.0,30,0.00,,---,0.00,VWS V14.01,2013-08-03 23:28:00,
2013-08-03 15:30:00,77.7,42.9,29.72,SSE,162,0.0,7.0,29,0.00,,---,0.00,VWS V14.01,2013-08-03 23:30:00,
2013-08-03 15:33:00,77.7,42.9,29.72,South,186,3.0,6.0,29,0.00,,---,0.00,VWS V14.01,2013-08-03 23:33:00,
2013-08-03 15:38:00,77.5,43.7,29.72,South,182,4.0,12.0,30,0.00,,---,0.00,VWS V14.01,2013-08-03 23:38:00,
2013-08-03 15:43:00,77.2,42.5,29.72,South,183,2.0,12.0,29,0.00,,---,0.00,VWS V14.01,2013-08-03 23:43:00,
2013-08-03 15:48:00,77.0,43.2,29.72,SW,218,0.0,12.0,30,0.00,,---,0.00,VWS V14.01,2013-08-03 23:48:00,
2013-08-03 15:53:00,77.3,42.6,29.72,South,178,5.0,12.0,29,0.00,,---,0.00,VWS V14.01,2013-08-03 23:53:00,
2013-08-03 15:58:00,77.2,43.4,29.72,South,186,2.0,12.0,30,0.00,,---,0.00,VWS V14.01,2013-08-03 23:58:00,
2013-08-03 16:00:00,77.3,43.5,29.72,South,179,2.0,12.0,30,0.00,,---,0.00,VWS V14.01,2013-08-04 00:00:00,
2013-08-03 16:03:00,77.3,43.5,29.72,South,169,5.0,6.0,30,0.00,,---,0.00,VWS V14.01,2013-08-04 00:03:00,
2013-08-03 16:08:00,77.3,43.5,29.71,SSW,194,3.0,8.0,30,0.00,,---,0.00,VWS V14.01,2013-08-04 00:08:00,
2013-08-03 16:13:00,77.4,43.6,29.71,South,184,1.0,8.0,30,0.00,,---,0.00,VWS V14.01,2013-08-04 00:13:00,
2013-08-03 16:18:00,77.5,43.7,29.72,SSE,161,4.0,8.0,30,0.00,,---,0.00,VWS V14.01,2013-08-04 00:18:00,
2013-08-03 16:23:00,77.5,43.7,29.71,South,173,0.0,8.0,30,0.00,,---,0.00,VWS V14.01,2013-08-04 00:23:00,
2013-08-03 16:28:00,77.8,43.9,29.71,SSW,207,1.0,8.0,30,0.00,,---,0.00,VWS V14.01,2013-08-04 00:28:00,
2013-08-03 16:30:00,78.2,43.4,29.71,SSW,212,1.0,8.0,29,0.00,,---,0.00,VWS V14.01,2013-08-04 00:30:00,
2013-08-03 16:33:00,78.3,44.3,29.71,SE,144,2.0,4.0,30,0.00,,---,0.00,VWS V14.01,2013-08-04 00:33:00,
2013-08-03 16:38:00,78.2,44.3,29.71,SSW,197,0.0,9.0,30,0.00,,---,0.00,VWS V14.01,2013-08-04 00:38:00,
2013-08-03 16:43:00,78.2,43.4,29.71,SSE,167,0.0,9.0,29,0.00,,---,0.00,VWS V14.01,2013-08-04 00:43:00,
2013-08-03 16:48:00,78.0,43.2,29.71,South,172,2.0,9.0,29,0.00,,---,0.00,VWS V14.01,2013-08-04 00:48:00,
2013-08-03 16:53:00,78.0,44.1,29.71,South,180,1.0,9.0,30,0.00,,---,0.00,VWS V14.01,2013-08-04 00:53:00,
2013-08-03 16:58:00,77.8,43.0,29.72,SSE,167,5.0,12.0,29,0.00,,---,0.00,VWS V14.01,2013-08-04 00:58:00,
2013-08-03 17:00:00,77.3,42.6,29.72,South,186,3.0,12.0,29,0.00,,---,0.00,VWS V14.01,2013-08-04 01:00:00,
2013-08-03 17:03:00,77.1,43.3,29.71,SSE,151,0.0,6.0,30,0.00,,---,0.00,VWS V14.01,2013-08-04 01:03:00,
2013-08-03 17:08:00,77.1,42.4,29.71,South,186,0.0,9.0,29,0.00,,---,0.00,VWS V14.01,2013-08-04 01:08:00,
2013-08-03 17:13:00,77.1,43.3,29.72,SSW,204,4.0,9.0,30,0.00,,---,0.00,VWS V14.01,2013-08-04 01:13:00,
2013-08-03 17:18:00,76.9,42.3,29.72,WSW,250,0.0,9.0,29,0.00,,---,0.00,VWS V14.01,2013-08-04 01:18:00,
2013-08-03 17:23:00,76.4,42.7,29.72,SW,221,1.0,9.0,30,0.00,,---,0.00,VWS V14.01,2013-08-04 01:23:00,
2013-08-03 17:28:00,75.9,43.1,29.71,South,180,0.0,9.0,31,0.00,,---,0.00,VWS V14.01,2013-08-04 01:28:00,
2013-08-03 17:30:00,75.7,43.0,29.71,SSW,213,0.0,9.0,31,0.00,,---,0.00,VWS V14.01,2013-08-04 01:30:00,
2013-08-03 17:33:00,75.6,43.7,29.71,South,175,2.0,4.0,32,0.00,,---,0.00,VWS V14.01,2013-08-04 01:33:00,
2013-08-03 17:38:00,75.4,44.3,29.71,WSW,237,1.0,4.0,33,0.00,,---,0.00,VWS V14.01,2013-08-04 01:38:00,
2013-08-03 17:43:00,75.0,44.0,29.72,West,264,2.0,7.0,33,0.00,,---,0.00,VWS V14.01,2013-08-04 01:43:00,
2013-08-03 17:48:00,74.7,44.5,29.72,South,171,0.0,7.0,34,0.00,,---,0.00,VWS V14.01,2013-08-04 01:48:00,
2013-08-03 17:53:00,74.6,45.2,29.72,North,9,0.0,7.0,35,0.00,,---,0.00,VWS V14.01,2013-08-04 01:53:00,
2013-08-03 17:58:00,74.8,44.6,29.72,SE,136,4.0,7.0,34,0.00,,---,0.00,VWS V14.01,2013-08-04 01:58:00,
2013-08-03 18:00:00,75.2,45.7,29.71,SW,217,0.0,7.0,35,0.00,,---,0.00,VWS V14.01,2013-08-04 02:00:00,
2013-08-03 18:03:00,75.3,45.0,29.71,West,259,2.0,5.0,34,0.00,,---,0.00,VWS V14.01,2013-08-04 02:03:00,
2013-08-03 18:08:00,75.3,45.8,29.71,SSW,199,5.0,6.0,35,0.00,,---,0.00,VWS V14.01,2013-08-04 02:08:00,
2013-08-03 18:13:00,75.2,45.7,29.71,SW,218,1.0,6.0,35,0.00,,---,0.00,VWS V14.01,2013-08-04 02:13:00,
2013-08-03 18:18:00,75.0,45.5,29.71,WSW,243,0.0,6.0,35,0.00,,---,0.00,VWS V14.01,2013-08-04 02:18:00,
2013-08-03 18:23:00,74.6,44.4,29.71,SW,229,3.0,8.0,34,0.00,,---,0.00,VWS V14.01,2013-08-04 02:23:00,
2013-08-03 18:28:00,74.0,44.6,29.71,SW,218,1.0,8.0,35,0.00,,---,0.00,VWS V14.01,2013-08-04 02:28:00,
2013-08-03 18:30:00,73.8,44.5,29.72,SSW,197,1.0,8.0,35,0.00,,---,0.00,VWS V14.01,2013-08-04 02:30:00,
2013-08-03 18:33:00,73.6,44.3,29.72,SW,229,4.0,7.0,35,0.00,,---,0.00,VWS V14.01,2013-08-04 02:33:00,
2013-08-03 18:38:00,73.3,44.8,29.72,SW,215,6.0,15.0,36,0.00,,---,0.00,VWS V14.01,2013-08-04 02:38:00,
2013-08-03 18:43:00,73.2,44.7,29.72,SW,229,15.0,15.0,36,0.00,,---,0.00,VWS V14.01,2013-08-04 02:43:00,
2013-08-03 18:48:00,72.4,45.4,29.72,SW,222,5.0,15.0,38,0.00,,---,0.00,VWS V14.01,2013-08-04 02:48:00,
2013-08-03 18:53:00,71.7,45.5,29.73,SSW,208,0.0,15.0,39,0.00,,---,0.00,VWS V14.01,2013-08-04 02:53:00,
2013-08-03 18:58:00,71.1,46.2,29.73,WSW,244,2.0,15.0,41,0.00,,---,0.00,VWS V14.01,2013-08-04 02:58:00,
2013-08-03 19:00:00,70.8,46.6,29.74,WNW,282,3.0,15.0,42,0.00,,---,0.00,VWS V14.01,2013-08-04 03:00:00,
2013-08-03 19:03:00,70.6,47.0,29.74,WSW,238,1.0,4.0,43,0.00,,---,0.00,VWS V14.01,2013-08-04 03:03:00,
2013-08-03 19:08:00,70.1,46.0,29.74,SW,229,2.0,7.0,42,0.00,,---,0.00,VWS V14.01,2013-08-04 03:08:00,
2013-08-03 19:13:00,69.7,46.2,29.74,SW,215,0.0,7.0,43,0.00,,---,0.00,VWS V14.01,2013-08-04 03:13:00,
2013-08-03 19:18:00,69.4,46.6,29.74,ESE,115,0.0,7.0,44,0.00,,---,0.00,VWS V14.01,2013-08-04 03:18:00,
2013-08-03 19:23:00,69.2,46.4,29.74,SSW,207,1.0,7.0,44,0.00,,---,0.00,VWS V14.01,2013-08-04 03:23:00,
2013-08-03 19:28:00,69.1,46.3,29.74,SSW,205,0.0,7.0,44,0.00,,---,0.00,VWS V14.01,2013-08-04 03:28:00,
2013-08-03 19:30:00,69.0,46.8,29.74,SSW,207,0.0,7.0,45,0.00,,---,0.00,VWS V14.01,2013-08-04 03:30:00,
2013-08-03 19:32:00,69.0,46.8,29.74,SSE,162,0.0,4.0,45,0.00,,---,0.00,VWS V14.01,2013-08-04 03:32:00,
2013-08-03 19:37:00,68.9,47.3,29.73,SSE,162,0.0,4.0,46,0.00,,---,0.00,VWS V14.01,2013-08-04 03:37:00,
2013-08-03 19:43:00,68.7,46.5,29.74,SSW,209,0.0,4.0,45,0.00,,---,0.00,VWS V14.01,2013-08-04 03:43:00,
2013-08-03 19:48:00,68.6,47.0,29.74,SSW,196,0.0,4.0,46,0.00,,---,0.00,VWS V14.01,2013-08-04 03:48:00,
2013-08-03 19:53:00,68.5,46.3,29.74,South,181,1.0,4.0,45,0.00,,---,0.00,VWS V14.01,2013-08-04 03:53:00,
2013-08-03 19:57:00,68.5,46.9,29.74,South,181,0.0,4.0,46,0.00,,---,0.00,VWS V14.01,2013-08-04 03:57:00,
2013-08-03 20:01:00,68.4,46.8,29.74,SW,219,0.0,4.0,46,0.00,,---,0.00,VWS V14.01,2013-08-04 04:01:00,
2013-08-03 20:06:00,68.3,46.7,29.74,SE,145,1.0,2.0,46,0.00,,---,0.00,VWS V14.01,2013-08-04 04:06:00,
2013-08-03 20:11:00,68.1,47.1,29.75,SSE,167,0.0,4.0,47,0.00,,---,0.00,VWS V14.01,2013-08-04 04:11:00,
2013-08-03 20:16:00,68.0,47.0,29.74,SSE,167,0.0,4.0,47,0.00,,---,0.00,VWS V14.01,2013-08-04 04:16:00,
2013-08-03 20:21:00,68.0,47.0,29.74,South,181,0.0,4.0,47,0.00,,---,0.00,VWS V14.01,2013-08-04 04:21:00,
2013-08-03 20:26:00,67.8,46.9,29.74,South,181,0.0,4.0,47,0.00,,---,0.00,VWS V14.01,2013-08-04 04:26:00,
2013-08-03 20:30:00,67.8,47.4,29.74,South,181,0.0,4.0,48,0.00,,---,0.00,VWS V14.01,2013-08-04 04:30:00,
2013-08-03 20:31:00,67.7,47.3,29.74,South,181,0.0,4.0,48,0.00,,---,0.00,VWS V14.01,2013-08-04 04:31:00,
2013-08-03 20:36:00,67.7,47.3,29.74,South,181,0.0,1.0,48,0.00,,---,0.00,VWS V14.01,2013-08-04 04:36:00,
2013-08-03 20:41:00,67.6,47.8,29.75,South,181,0.0,3.0,49,0.00,,---,0.00,VWS V14.01,2013-08-04 04:41:00,
2013-08-03 20:46:00,67.3,48.0,29.75,South,181,0.0,3.0,50,0.00,,---,0.00,VWS V14.01,2013-08-04 04:46:00,
2013-08-03 20:51:00,67.0,47.8,29.75,South,181,0.0,3.0,50,0.00,,---,0.00,VWS V14.01,2013-08-04 04:51:00,
2013-08-03 20:56:00,66.8,48.1,29.75,South,186,0.0,3.0,51,0.00,,---,0.00,VWS V14.01,2013-08-04 04:56:00,
2013-08-03 21:00:00,66.8,48.1,29.75,SSE,150,0.0,6.0,51,0.00,,---,0.00,VWS V14.01,2013-08-04 05:00:00,
2013-08-03 21:01:00,66.8,48.1,29.75,SSE,150,0.0,6.0,51,0.00,,---,0.00,VWS V14.01,2013-08-04 05:01:00,
2013-08-03 21:06:00,66.7,48.0,29.75,South,190,2.0,3.0,51,0.00,,---,0.00,VWS V14.01,2013-08-04 05:06:00,
2013-08-03 21:11:00,66.7,48.0,29.75,SW,216,0.0,6.0,51,0.00,,---,0.00,VWS V14.01,2013-08-04 05:11:00,
2013-08-03 21:16:00,66.8,48.1,29.75,SW,221,1.0,6.0,51,0.00,,---,0.00,VWS V14.01,2013-08-04 05:16:00,
2013-08-03 21:20:00,66.8,48.1,29.75,South,190,3.0,6.0,51,0.00,,---,0.00,VWS V14.01,2013-08-04 05:20:00,
2013-08-03 21:25:00,66.8,48.1,29.75,SSE,166,0.0,6.0,51,0.00,,---,0.00,VWS V14.01,2013-08-04 05:25:00,
2013-08-03 21:30:00,66.7,48.0,29.75,SW,215,1.0,8.0,51,0.00,,---,0.00,VWS V14.01,2013-08-04 05:30:00,
2013-08-03 21:31:00,66.7,48.0,29.75,SW,215,0.0,8.0,51,0.00,,---,0.00,VWS V14.01,2013-08-04 05:31:00,
2013-08-03 21:36:00,66.7,48.0,29.75,SSE,166,2.0,7.0,51,0.00,,---,0.00,VWS V14.01,2013-08-04 05:36:00,
2013-08-03 21:41:00,66.6,47.9,29.76,West,272,3.0,8.0,51,0.00,,---,0.00,VWS V14.01,2013-08-04 05:41:00,
2013-08-03 21:46:00,66.6,47.9,29.76,South,182,3.0,8.0,51,0.00,,---,0.00,VWS V14.01,2013-08-04 05:46:00,
2013-08-03 21:51:00,66.5,47.8,29.76,WSW,237,7.0,11.0,51,0.00,,---,0.00,VWS V14.01,2013-08-04 05:51:00,
2013-08-03 21:56:00,66.2,48.1,29.77,WNW,290,1.0,11.0,52,0.00,,---,0.00,VWS V14.01,2013-08-04 05:56:00,
2013-08-03 22:00:00,65.7,47.6,29.77,SSW,193,0.0,11.0,52,0.00,,---,0.00,VWS V14.01,2013-08-04 06:00:00,
2013-08-03 22:01:00,65.8,47.7,29.77,SW,215,3.0,11.0,52,0.00,,---,0.00,VWS V14.01,2013-08-04 06:01:00,
2013-08-03 22:05:00,65.5,48.4,29.77,SW,216,0.0,4.0,54,0.00,,---,0.00,VWS V14.01,2013-08-04 06:05:00,
2013-08-03 22:11:00,65.2,48.6,29.76,SW,216,0.0,4.0,55,0.00,,---,0.00,VWS V14.01,2013-08-04 06:11:00,
2013-08-03 22:16:00,64.9,48.4,29.76,SW,216,0.0,4.0,55,0.00,,---,0.00,VWS V14.01,2013-08-04 06:16:00,
2013-08-03 22:21:00,64.8,48.3,29.76,SSW,213,0.0,4.0,55,0.00,,---,0.00,VWS V14.01,2013-08-04 06:21:00,
2013-08-03 22:26:00,65.0,47.0,29.76,NW,306,1.0,4.0,52,0.00,,---,0.00,VWS V14.01,2013-08-04 06:26:00,
2013-08-03 22:30:00,65.6,46.5,29.76,SSW,211,0.0,5.0,50,0.00,,---,0.00,VWS V14.01,2013-08-04 06:30:00,
2013-08-03 22:31:00,65.5,46.4,29.76,SSW,211,0.0,5.0,50,0.00,,---,0.00,VWS V14.01,2013-08-04 06:31:00,
2013-08-03 22:35:00,65.7,47.1,29.76,SSW,211,0.0,1.0,51,0.00,,---,0.00,VWS V14.01,2013-08-04 06:35:00,
2013-08-03 22:41:00,65.7,46.6,29.77,SW,216,0.0,5.0,50,0.00,,---,0.00,VWS V14.01,2013-08-04 06:41:00,
2013-08-03 22:46:00,65.7,46.6,29.76,SW,216,0.0,5.0,50,0.00,,---,0.00,VWS V14.01,2013-08-04 06:46:00,
2013-08-03 22:51:00,65.7,47.1,29.77,SSW,202,4.0,5.0,51,0.00,,---,0.00,VWS V14.01,2013-08-04 06:51:00,
2013-08-03 22:56:00,65.7,46.6,29.76,NNE,32,0.0,6.0,50,0.00,,---,0.00,VWS V14.01,2013-08-04 06:56:00,
2013-08-03 23:00:00,66.0,46.3,29.77,South,186,0.0,7.0,49,0.00,,---,0.00,VWS V14.01,2013-08-04 07:00:00,
2013-08-03 23:01:00,65.9,46.2,29.77,SW,218,1.0,7.0,49,0.00,,---,0.00,VWS V14.01,2013-08-04 07:01:00,
2013-08-03 23:06:00,66.1,46.4,29.77,South,178,0.0,8.0,49,0.00,,---,0.00,VWS V14.01,2013-08-04 07:06:00,
2013-08-03 23:10:00,66.2,46.0,29.77,SSW,209,9.0,9.0,48,0.00,,---,0.00,VWS V14.01,2013-08-04 07:10:00,
2013-08-03 23:15:00,66.0,46.3,29.77,South,171,4.0,9.0,49,0.00,,---,0.00,VWS V14.01,2013-08-04 07:15:00,
2013-08-03 23:20:00,65.8,46.7,29.77,SW,215,1.0,9.0,50,0.00,,---,0.00,VWS V14.01,2013-08-04 07:20:00,
2013-08-03 23:25:00,65.6,46.5,29.78,SSE,153,2.0,9.0,50,0.00,,---,0.00,VWS V14.01,2013-08-04 07:25:00,
2013-08-03 23:30:00,65.5,46.9,29.78,SSW,211,3.0,9.0,51,0.00,,---,0.00,VWS V14.01,2013-08-04 07:30:00,
2013-08-03 23:35:00,65.2,47.2,29.78,SSW,196,2.0,6.0,52,0.00,,---,0.00,VWS V14.01,2013-08-04 07:35:00,
2013-08-03 23:40:00,65.0,47.0,29.78,SSW,194,1.0,6.0,52,0.00,,---,0.00,VWS V14.01,2013-08-04 07:40:00,
2013-08-03 23:45:00,64.9,46.9,29.79,SSW,211,4.0,6.0,52,0.00,,---,0.00,VWS V14.01,2013-08-04 07:45:00,
2013-08-03 23:50:00,64.8,46.8,29.79,SSW,206,1.0,6.0,52,0.00,,---,0.00,VWS V14.01,2013-08-04 07:50:00,
2013-08-03 23:55:00,64.8,46.8,29.79,South,176,0.0,6.0,52,0.00,,---,0.00,VWS V14.01,2013-08-04 07:55:00,